This is the latest recevied weather packets stored in our database for station/object YM2KV-13. If no packets are shown the sender has not sent any weather packets the latest 10 day(s).
| Time | Temp. | Humidity | Pressure | Rain* | Wind** | Luminosity | Snow |
|---|---|---|---|---|---|---|---|
| 1778149791 | 25° C | 44% | 1029.4 hPa | - | - | - | - |
| 1778149191 | 25° C | 43% | 1029.5 hPa | - | - | - | - |
| 1778148591 | 25° C | 44% | 1029.4 hPa | - | - | - | - |
| 1778147991 | 25° C | 44% | 1029.4 hPa | - | - | - | - |
| 1778147391 | 23.89° C | 46% | 1029.3 hPa | - | - | - | - |
| 1778146791 | 22.78° C | 47% | 1029.3 hPa | - | - | - | - |
| 1778146191 | 23.33° C | 42% | 1029.4 hPa | - | - | - | - |
| 1778145591 | 23.33° C | 43% | 1029.5 hPa | - | - | - | - |
| 1778144991 | 23.89° C | 42% | 1029.6 hPa | - | - | - | - |
| 1778144391 | 23.89° C | 39% | 1029.7 hPa | - | - | - | - |
| 1778143791 | 23.33° C | 40% | 1029.7 hPa | - | - | - | - |
| 1778143191 | 22.78° C | 41% | 1029.7 hPa | - | - | - | - |
| 1778142591 | 22.78° C | 44% | 1029.8 hPa | - | - | - | - |
| 1778141991 | 21.67° C | 42% | 1029.9 hPa | - | - | - | - |
| 1778141391 | 21.67° C | 44% | 1029.8 hPa | - | - | - | - |
| 1778140791 | 20.56° C | 51% | 1029.9 hPa | - | - | - | - |
| 1778140191 | 20° C | 52% | 1029.9 hPa | - | - | - | - |
| 1778139591 | 20° C | 52% | 1029.9 hPa | - | - | - | - |
| 1778138991 | 20° C | 56% | 1030 hPa | - | - | - | - |
| 1778138391 | 18.89° C | 56% | 1030 hPa | - | - | - | - |
| 1778137791 | 18.33° C | 58% | 1030 hPa | - | - | - | - |
| 1778137191 | 17.78° C | 58% | 1030 hPa | - | - | - | - |
| 1778136591 | 16.67° C | 62% | 1030 hPa | - | - | - | - |
| 1778135991 | 16.11° C | 67% | 1030 hPa | - | - | - | - |
| 1778135391 | 15.56° C | 67% | 1030.1 hPa | - | - | - | - |
* Rain since midnight (hover to see other rain measurements)
** Current wind speed in m/s (hover to see current wind gust speed)